EW8486 Weather Reports


time (UTC)temp
C
wind
direction
speed
KPH
gust
KPH
rain 1hr
cm
rain 24hr
cm
rain mn
cm
humidity
%
barometer
mb
20260506143515 14 180 1.6 4.8 0.00 0.00 0.00 63 1013.7
20260506142035 15 203 1.6 3.2 0.00 0.00 0.00 62 1013.9
20260506140515 14 0.0 1.6 0.00 0.00 0.00 58 1013.9
20260506135035 13 0.0 0.0 0.00 0.00 0.00 60 1013.9
20260506133537 13 0.0 3.2 0.00 0.00 0.00 63 1013.6
20260506132017 12 0.0 0.0 0.00 0.00 0.00 63 1013.3
20260506130537 12 0.0 1.6 0.00 0.00 0.00 64 1013.0
20260506125017 11 203 1.6 3.2 0.00 0.00 0.00 63 1013.1
20260506123517 12 0.0 0.0 0.00 0.00 0.00 62 1013.2
20260506122017 12 0.0 0.0 0.00 0.00 0.00 61 1013.1
20260506120517 12 0.0 0.0 0.00 0.00 0.00 61 1013.0
20260506115037 12 0.0 0.0 0.00 0.00 0.00 62 1013.0
20260506113517 12 0.0 0.0 0.00 0.00 0.00 61 1012.9
20260506112017 12 0.0 0.0 0.00 0.00 0.00 61 1012.9
20260506110517 12 0.0 0.0 0.00 0.00 0.00 60 1012.7
20260506105037 13 0.0 0.0 0.00 0.00 0.00 57 1012.4
20260506103537 13 0.0 0.0 0.00 0.00 0.00 58 1012.2
20260506102037 13 0.0 0.0 0.00 0.00 0.00 58 1012.2
20260506100517 13 0.0 0.0 0.00 0.00 0.00 57 1012.2
20260506095037 13 0.0 1.6 0.00 0.00 0.00 57 1012.1
20260506093516 13 0.0 1.6 0.00 0.00 0.00 58 1012.0
20260506092016 14 0.0 1.6 0.00 0.00 0.00 55 1012.0
20260506090557 14 0.0 3.2 0.00 0.00 0.00 53 1012.0
20260506085017 14 0.0 3.2 0.00 0.00 0.00 55 1011.9
20260506083516 15 0.0 1.6 0.00 0.00 0.00 54 1011.9
20260506082017 15 0.0 3.2 0.00 0.00 0.00 50 1011.9
20260506080516 15 0.0 3.2 0.00 0.00 0.00 50 1011.9
20260506073517 15 0.0 1.6 0.00 0.00 0.00 48 1011.8
20260506072017 15 0.0 1.6 0.00 0.00 0.00 47 1011.6
20260506070517 16 0.0 0.0 0.00 0.00 0.00 45 1011.5
20260506062015 16 0.0 1.6 0.00 0.00 0.00 42 1011.1
20260506060515 17 0.0 1.6 0.00 0.00 0.00 42 1011.2
20260506050517 18 0.0 1.6 0.00 0.00 0.00 41 1010.6
20260506045017 18 23 1.6 4.8 0.00 0.00 0.00 40 1010.6
20260506043517 18 0.0 3.2 0.00 0.00 0.00 37 1010.4
20260506042037 18 0.0 1.6 0.00 0.00 0.00 38 1010.3
20260506040517 20 23 1.6 3.2 0.00 0.00 0.00 39 1010.4
20260506033537 21 248 1.6 11.3 0.00 0.00 0.00 33 1009.8
20260506032017 21 0.0 1.6 0.00 0.00 0.00 33 1009.6
20260506030517 21 0.0 0.0 0.00 0.00 0.00 33 1009.6
20260506025017 21 0.0 1.6 0.00 0.00 0.00 32 1009.6
20260506023517 22 0.0 1.6 0.00 0.00 0.00 32 1009.5
20260506022017 23 23 1.6 3.2 0.00 0.00 0.00 29 1009.6
20260506020517 23 23 1.6 4.8 0.00 0.00 0.00 29 1009.7
20260506015017 24 68 1.6 3.2 0.00 0.00 0.00 29 1009.7
20260506013517 25 45 4.8 9.7 0.00 0.00 0.00 27 1009.8
20260506012017 25 23 4.8 8.0 0.00 0.00 0.00 27 1009.7
20260506010536 26 23 3.2 11.3 0.00 0.00 0.00 27 1009.9
20260506005016 26 135 1.6 6.4 0.00 0.00 0.00 27 1010.1
20260506003517 26 23 1.6 8.0 0.00 0.00 0.00 26 1010.1
20260506002017 26 45 3.2 6.4 0.00 0.00 0.00 27 1010.3
20260506000517 26 0 4.8 9.7 0.00 0.00 0.00 26 1010.5
20260505235016 25 90 3.2 6.4 0.00 0.00 0.00 27 1010.5
20260505233517 25 90 3.2 14.5 0.00 0.00 0.00 27 1010.6
20260505232037 26 23 4.8 12.9 0.00 0.00 0.00 26 1010.9
20260505230557 26 90 6.4 12.9 0.00 0.00 0.00 24 1011.2
20260505225016 27 45 3.2 8.0 0.00 0.00 0.00 23 1011.3
20260505223617 27 45 8.0 16.1 0.00 0.00 0.00 23 1011.3
20260505222036 27 90 3.2 11.3 0.00 0.00 0.00 24 1011.7
20260505220516 27 90 4.8 11.3 0.00 0.00 0.00 24 1011.9
20260505215016 27 113 3.2 9.7 0.00 0.00 0.00 24 1012.3
20260505213516 26 45 3.2 11.3 0.00 0.00 0.00 24 1012.4
20260505212016 26 68 4.8 12.9 0.00 0.00 0.00 23 1012.6
20260505210516 26 113 3.2 6.4 0.00 0.00 0.00 24 1012.8
20260505205016 25 45 4.8 16.1 0.00 0.00 0.00 27 1012.8
20260505203516 23 45 8.0 17.7 0.00 0.00 0.00 27 1013.0
20260505202016 24 90 6.4 16.1 0.00 0.00 0.00 26 1013.3
20260505200516 23 45 9.7 20.9 0.00 0.00 0.00 27 1013.5
20260505195036 24 45 6.4 14.5 0.00 0.00 0.00 27 1013.8
20260505193516 24 45 3.2 9.7 0.00 0.00 0.00 28 1014.0
20260505192016 23 68 4.8 16.1 0.00 0.00 0.00 28 1014.1
20260505190516 23 68 6.4 14.5 0.00 0.00 0.00 31 1014.1
20260505185016 22 68 6.4 14.5 0.00 0.00 0.00 32 1014.2
20260505183516 22 45 8.0 14.5 0.00 0.00 0.00 31 1014.5
20260505182016 21 45 6.4 17.7 0.00 0.00 0.00 33 1014.6
20260505180516 21 90 3.2 11.3 0.00 0.00 0.00 36 1014.7
20260505175036 21 68 3.2 11.3 0.00 0.00 0.00 37 1014.9
20260505173516 20 45 4.8 11.3 0.00 0.00 0.00 37 1014.9
20260505172016 20 45 3.2 12.9 0.00 0.00 0.00 39 1015.0
20260505170536 18 68 3.2 9.7 0.00 0.00 0.00 42 1015.1
20260505165036 17 248 4.8 9.7 0.00 0.00 0.00 43 1015.1
20260505163516 18 113 3.2 6.4 0.00 0.00 0.00 46 1015.3
20260505162015 17 23 3.2 8.0 0.00 0.00 0.00 48 1015.3
20260505160515 17 68 4.8 14.5 0.00 0.00 0.00 49 1015.1
20260505152015 16 68 1.6 4.8 0.00 0.00 0.00 51 1015.3
20260505150516 15 45 3.2 4.8 0.00 0.00 0.00 55 1015.2